Inquirer Daily News

Weather

Get conditions and forecasts for any City, State, ZIP code or Country:  
Northeast Philadelphia, PA
on Saturday, December 8, 2012

Saturday
Previous Day Next Day
Daily Summary
 ActualAverage (KTTN)Record (KTTN)
Temperature
Mean Temperature °F 38°F  
Max Temperature 51°F 45°F 66°F (1980)
Min Temperature 42°F 30°F 10°F (1906)
Degree Days
Heating Degree Days 18 27  
Month to date heating degree days 208  
Since 1 July heating degree days 1184  
Cooling Degree Days 0 0  
Month to date cooling degree days 0  
Year to date cooling degree days 965  
Moisture
Dew Point 45°F   
Average Humidity 96    
Maximum Humidity 100    
Minimum Humidity 87    
Precipitation
Precipitation 0.19 in 0.13 in 0.91 in (1974)
Month to date precipitation 1.10  
Year to date precipitation 43.84  
Wind
Wind Speed 3 mph   
Max Wind Speed 8 mph   
Max Gust Speed mph   
Visibility 3 miles   
Events Fog , Rain   

Key: T is trace of precipitation, MM is missing value
Source: NWS Daily Summary
Time(EST)TemperatureDew PointHumidity Pressure Visibility Wind DirectionWind SpeedGust SpeedPrecipitationEvents Conditions
12:04 AM 42.8°F 42.8°F 100% 30.03 in 1.8 miles NNE 3.5 mph - 0.02 in Rain Rain
12:24 AM 42.8°F 42.8°F 100% 30.02 in 3.0 miles Calm Calm - 0.12 in Rain Rain
12:34 AM 42.8°F 42.8°F 100% 30.01 in 2.5 miles NE 4.6 mph - 0.14 in Rain Rain
12:41 AM 42.8°F 41.0°F 93% 30.01 in 3.0 miles NE 4.6 mph - 0.15 in Rain Light Rain
12:54 AM 42.1°F 41.0°F 96% 30.01 in 4.0 miles NE 5.8 mph - 0.16 in Rain Light Rain
1:18 AM 42.8°F 42.8°F 100% 30.00 in 5.0 miles NNE 5.8 mph - 0.00 in Rain Light Rain
1:49 AM 42.8°F 42.8°F 100% 29.99 in 5.0 miles NNE 4.6 mph - 0.00 in Rain Light Rain
1:54 AM 43.0°F 42.1°F 97% 29.99 in 4.0 miles NNE 5.8 mph - 0.01 in Rain Light Rain
2:15 AM 42.8°F 42.8°F 100% 29.98 in 4.0 miles NE 6.9 mph - 0.01 in Rain Light Rain
2:54 AM 43.0°F 42.1°F 97% 29.97 in 5.0 miles NNE 5.8 mph - 0.01 in   Overcast
3:12 AM 42.8°F 42.8°F 100% 29.97 in 2.0 miles NNE 5.8 mph - 0.00 in Rain Light Rain
3:50 AM 42.8°F 42.8°F 100% 29.95 in 3.0 miles NE 5.8 mph - 0.00 in   Overcast
3:54 AM 43.0°F 42.1°F 97% 29.95 in 3.0 miles NE 3.5 mph - 0.01 in   Overcast
4:10 AM 42.8°F 42.8°F 100% 29.94 in 2.5 miles ENE 3.5 mph - N/A   Overcast
4:28 AM 44.6°F 42.8°F 93% 29.94 in 3.0 miles NNE 3.5 mph - N/A   Overcast
4:54 AM 44.1°F 43.0°F 96% 29.93 in 3.0 miles NNE 4.6 mph - N/A   Overcast
5:41 AM 44.6°F 42.8°F 93% 29.93 in 2.5 miles ENE 3.5 mph - N/A   Overcast
5:54 AM 44.6°F 42.8°F 93% 29.93 in 1.8 miles Calm Calm - N/A   Overcast
6:54 AM 44.6°F 44.6°F 100% 29.94 in 1.8 miles Calm Calm - N/A   Overcast
7:34 AM 44.6°F 44.6°F 100% 29.93 in 0.5 miles Calm Calm - N/A Fog Fog
7:54 AM 45.0°F 44.1°F 97% 29.94 in 1.8 miles NNW 3.5 mph - N/A   Overcast
8:01 AM 44.6°F 44.6°F 100% 29.94 in 3.0 miles Calm Calm - N/A   Overcast
8:11 AM 44.6°F 44.6°F 100% 29.94 in 2.5 miles Calm Calm - N/A   Overcast
8:47 AM 44.6°F 44.6°F 100% 29.94 in 1.5 miles Calm Calm - N/A   Overcast
8:54 AM 45.0°F 45.0°F 100% 29.95 in 1.8 miles Calm Calm - N/A   Overcast
9:01 AM 44.6°F 44.6°F 100% 29.95 in 2.5 miles Calm Calm - N/A   Overcast
9:34 AM 46.4°F 44.6°F 93% 29.95 in 3.0 miles Calm Calm - N/A   Overcast
9:41 AM 46.4°F 44.6°F 93% 29.96 in 2.5 miles Calm Calm - N/A   Overcast
9:54 AM 46.9°F 46.0°F 97% 29.96 in 3.0 miles Calm Calm - N/A   Overcast
10:08 AM 46.4°F 46.4°F 100% 29.95 in 2.5 miles Calm Calm - N/A   Overcast
10:44 AM 48.2°F 46.4°F 93% 29.95 in 3.0 miles Calm Calm - N/A   Overcast
10:54 AM 48.0°F 46.9°F 96% 29.95 in 3.0 miles West 4.6 mph - N/A   Overcast
11:54 AM 50.0°F 48.0°F 93% 29.94 in 6.0 miles WSW 8.1 mph - N/A   Overcast
12:02 PM 50.0°F 46.4°F 87% 29.93 in 5.0 miles SW 5.8 mph - N/A   Overcast
12:54 PM 51.1°F 48.0°F 89% 29.92 in 5.0 miles WSW 4.6 mph - N/A   Overcast
1:54 PM 51.1°F 48.0°F 89% 29.91 in 5.0 miles SSW 8.1 mph - N/A   Overcast
2:54 PM 51.1°F 48.9°F 92% 29.93 in 3.0 miles SSW 4.6 mph - N/A   Overcast
3:54 PM 51.1°F 48.9°F 92% 29.93 in 4.0 miles Calm Calm - N/A   Overcast
4:54 PM 51.1°F 48.9°F 92% 29.94 in 4.0 miles SW 4.6 mph - N/A   Overcast
5:54 PM 50.0°F 48.9°F 96% 29.95 in 4.0 miles SW 4.6 mph - N/A   Overcast
6:17 PM 50.0°F 48.2°F 94% 29.96 in 3.0 miles SSW 4.6 mph - N/A   Overcast
6:54 PM 50.0°F 48.9°F 96% 29.96 in 3.0 miles SW 4.6 mph - N/A   Overcast
7:54 PM 50.0°F 48.9°F 96% 29.99 in 3.0 miles SSW 3.5 mph - N/A   Overcast
8:43 PM 50.0°F 48.2°F 94% 30.00 in 2.5 miles WSW 6.9 mph - 0.00 in   Overcast
8:54 PM 50.0°F 48.0°F 93% 30.00 in 3.0 miles WSW 5.8 mph - 0.00 in   Overcast
9:54 PM 50.0°F 48.0°F 93% 30.01 in 3.0 miles SW 3.5 mph - 0.00 in   Overcast
10:52 PM 50.0°F 48.2°F 94% 30.03 in 5.0 miles West 4.6 mph - 0.00 in Rain Light Rain
10:54 PM 50.0°F 48.0°F 93% 30.03 in 5.0 miles WSW 4.6 mph - 0.00 in Rain Light Rain
11:54 PM 48.9°F 48.0°F 97% 30.04 in 5.0 miles Calm Calm - 0.00 in   Overcast
Astronomy
Sunrise:07:09 AM (EST) Moon Rise:01:31 AM (EST)12/8
Sunset:04:34 PM (EST) Moon Set:01:03 PM (EST)12/8
Moon Phase
Dec. 08 Dec. 13 Dec. 20 Dec. 28 Jan. 04

Copyright © 2014 The Weather Underground, Inc.